Time,TemperatureF,DewpointF,PressureIn,WindDirection,WindDirectionDegrees,WindSpeedMPH,WindSpeedGustMPH,Humidity,HourlyPrecipIn,Conditions,Clouds,dailyrainin,SolarRadiationWatts/m^2,SoftwareType,DateUTC
2013-03-22 00:22:00,42.0,34.0,-100.00,NE,35,8.0,14.0,73,0.00,,,0.00,1.000000,,2013-03-22 07:22:00,
2013-03-22 00:32:00,42.0,34.0,-100.00,NE,35,8.0,14.0,73,0.00,,,0.00,1.000000,,2013-03-22 07:32:00,
2013-03-22 00:42:00,42.0,34.0,-100.00,NE,35,8.0,14.0,73,0.00,,,0.00,1.000000,,2013-03-22 07:42:00,
2013-03-22 00:52:00,42.0,34.0,-100.00,NE,35,8.0,14.0,73,0.00,,,0.00,1.000000,,2013-03-22 07:52:00,
2013-03-22 01:22:00,40.0,33.0,-100.00,North,351,12.0,21.0,77,0.00,,,0.00,1.000000,,2013-03-22 08:22:00,
2013-03-22 01:32:00,40.0,33.0,-100.00,North,351,12.0,21.0,77,0.00,,,0.00,1.000000,,2013-03-22 08:32:00,
2013-03-22 01:42:00,40.0,33.0,-100.00,North,351,12.0,21.0,77,0.00,,,0.00,1.000000,,2013-03-22 08:42:00,
2013-03-22 01:52:00,40.0,33.0,-100.00,North,351,12.0,21.0,77,0.00,,,0.00,1.000000,,2013-03-22 08:52:00,
2013-03-22 02:32:00,42.0,30.0,-100.00,North,10,9.0,16.0,61,0.00,,,0.00,1.000000,,2013-03-22 09:32:00,
2013-03-22 02:42:00,42.0,30.0,-100.00,North,10,9.0,16.0,61,0.00,,,0.00,1.000000,,2013-03-22 09:42:00,
2013-03-22 02:53:00,42.0,30.0,-100.00,North,10,9.0,16.0,61,0.00,,,0.00,1.000000,,2013-03-22 09:53:00,
2013-03-22 03:32:00,42.0,28.0,-100.00,NNE,16,7.0,15.0,57,0.00,,,0.00,1.000000,,2013-03-22 10:32:00,
2013-03-22 03:42:00,42.0,28.0,-100.00,NNE,16,7.0,15.0,57,0.00,,,0.00,1.000000,,2013-03-22 10:42:00,
2013-03-22 03:52:00,42.0,28.0,-100.00,NNE,16,7.0,15.0,57,0.00,,,0.00,1.000000,,2013-03-22 10:52:00,
2013-03-22 04:22:00,42.0,26.0,-100.00,NNE,27,5.0,14.0,52,0.00,,,0.00,1.000000,,2013-03-22 11:22:00,
2013-03-22 04:32:00,42.0,26.0,-100.00,NNE,27,5.0,14.0,52,0.00,,,0.00,1.000000,,2013-03-22 11:32:00,
2013-03-22 04:42:00,42.0,26.0,-100.00,NNE,27,5.0,14.0,52,0.00,,,0.00,1.000000,,2013-03-22 11:42:00,
2013-03-22 04:52:00,42.0,26.0,-100.00,NNE,27,5.0,14.0,52,0.00,,,0.00,1.000000,,2013-03-22 11:52:00,
2013-03-22 05:22:00,44.0,21.0,-100.00,North,358,6.0,11.0,40,0.00,,,0.00,1.000000,,2013-03-22 12:22:00,
2013-03-22 05:32:00,44.0,21.0,-100.00,North,358,6.0,11.0,40,0.00,,,0.00,1.000000,,2013-03-22 12:32:00,
2013-03-22 05:42:00,44.0,21.0,-100.00,North,358,6.0,11.0,40,0.00,,,0.00,1.000000,,2013-03-22 12:42:00,
2013-03-22 05:52:00,44.0,21.0,-100.00,North,358,6.0,11.0,40,0.00,,,0.00,1.000000,,2013-03-22 12:52:00,
2013-03-22 06:22:00,41.0,25.0,-100.00,NNW,337,7.0,11.0,53,0.00,,,0.00,1.000000,,2013-03-22 13:22:00,
2013-03-22 06:32:00,41.0,25.0,-100.00,NNW,337,7.0,11.0,53,0.00,,,0.00,1.000000,,2013-03-22 13:32:00,
2013-03-22 06:42:00,41.0,25.0,-100.00,NNW,337,7.0,11.0,53,0.00,,,0.00,1.000000,,2013-03-22 13:42:00,
2013-03-22 06:52:00,41.0,25.0,-100.00,NNW,337,7.0,11.0,53,0.00,,,0.00,1.000000,,2013-03-22 13:52:00,
2013-03-22 07:22:00,40.0,23.0,-100.00,North,351,8.0,14.0,51,0.00,,,0.00,2.000000,,2013-03-22 14:22:00,
2013-03-22 07:32:00,40.0,23.0,-100.00,North,351,8.0,14.0,51,0.00,,,0.00,2.000000,,2013-03-22 14:32:00,
2013-03-22 07:42:00,40.0,23.0,-100.00,North,351,8.0,14.0,51,0.00,,,0.00,2.000000,,2013-03-22 14:42:00,
2013-03-22 07:52:00,40.0,23.0,-100.00,North,351,8.0,14.0,51,0.00,,,0.00,2.000000,,2013-03-22 14:52:00,
2013-03-22 08:22:00,42.0,23.0,-100.00,NNE,14,5.0,11.0,46,0.00,,,0.00,96.000000,,2013-03-22 15:22:00,
2013-03-22 08:32:00,42.0,23.0,-100.00,NNE,14,5.0,11.0,46,0.00,,,0.00,96.000000,,2013-03-22 15:32:00,
2013-03-22 08:42:00,42.0,23.0,-100.00,NNE,14,5.0,11.0,46,0.00,,,0.00,96.000000,,2013-03-22 15:42:00,
2013-03-22 08:52:00,42.0,23.0,-100.00,NNE,14,5.0,11.0,46,0.00,,,0.00,96.000000,,2013-03-22 15:52:00,
2013-03-22 09:32:00,45.0,24.0,-100.00,North,353,5.0,11.0,43,0.00,,,0.00,309.000000,,2013-03-22 16:32:00,
2013-03-22 09:42:00,45.0,24.0,-100.00,North,353,5.0,11.0,43,0.00,,,0.00,309.000000,,2013-03-22 16:42:00,
2013-03-22 09:52:00,45.0,24.0,-100.00,North,353,5.0,11.0,43,0.00,,,0.00,309.000000,,2013-03-22 16:52:00,
2013-03-22 10:32:00,50.0,24.0,-100.00,North,359,5.0,10.0,36,0.00,,,0.00,478.000000,,2013-03-22 17:32:00,
2013-03-22 10:42:00,50.0,24.0,-100.00,North,359,5.0,10.0,36,0.00,,,0.00,478.000000,,2013-03-22 17:42:00,
2013-03-22 10:52:00,50.0,24.0,-100.00,North,359,5.0,10.0,36,0.00,,,0.00,478.000000,,2013-03-22 17:52:00,
2013-03-22 11:22:00,53.0,25.0,-100.00,North,353,6.0,10.0,33,0.00,,,0.00,641.000000,,2013-03-22 18:22:00,
2013-03-22 11:32:00,53.0,25.0,-100.00,North,353,6.0,10.0,33,0.00,,,0.00,641.000000,,2013-03-22 18:32:00,
2013-03-22 11:42:00,53.0,25.0,-100.00,North,353,6.0,10.0,33,0.00,,,0.00,641.000000,,2013-03-22 18:42:00,
2013-03-22 11:52:00,53.0,25.0,-100.00,North,353,6.0,10.0,33,0.00,,,0.00,641.000000,,2013-03-22 18:52:00,
2013-03-22 12:22:00,57.0,26.0,-100.00,North,6,5.0,13.0,30,0.00,,,0.00,877.000000,,2013-03-22 19:22:00,
2013-03-22 12:32:00,57.0,26.0,-100.00,North,6,5.0,13.0,30,0.00,,,0.00,877.000000,,2013-03-22 19:32:00,
2013-03-22 12:42:00,57.0,26.0,-100.00,North,6,5.0,13.0,30,0.00,,,0.00,877.000000,,2013-03-22 19:42:00,
2013-03-22 12:52:00,57.0,26.0,-100.00,North,6,5.0,13.0,30,0.00,,,0.00,877.000000,,2013-03-22 19:52:00,
2013-03-22 13:32:00,60.0,27.0,-100.00,North,353,4.0,9.0,28,0.00,,,0.00,976.000000,,2013-03-22 20:32:00,
2013-03-22 13:42:00,60.0,27.0,-100.00,North,353,4.0,9.0,28,0.00,,,0.00,976.000000,,2013-03-22 20:42:00,
2013-03-22 13:52:00,60.0,27.0,-100.00,North,353,4.0,9.0,28,0.00,,,0.00,976.000000,,2013-03-22 20:52:00,
2013-03-22 14:32:00,64.0,24.0,-100.00,North,354,4.0,12.0,22,0.00,,,0.00,1040.000000,,2013-03-22 21:32:00,
2013-03-22 14:42:00,64.0,24.0,-100.00,North,354,4.0,12.0,22,0.00,,,0.00,1040.000000,,2013-03-22 21:42:00,
2013-03-22 14:52:00,64.0,24.0,-100.00,North,354,4.0,12.0,22,0.00,,,0.00,1040.000000,,2013-03-22 21:52:00,
2013-03-22 15:23:00,60.0,24.0,-100.00,NE,39,4.0,10.0,25,0.00,,,0.00,968.000000,,2013-03-22 22:23:00,
2013-03-22 15:32:00,60.0,24.0,-100.00,NE,39,4.0,10.0,25,0.00,,,0.00,968.000000,,2013-03-22 22:32:00,
2013-03-22 15:42:00,60.0,24.0,-100.00,NE,39,4.0,10.0,25,0.00,,,0.00,968.000000,,2013-03-22 22:42:00,
2013-03-22 15:52:00,60.0,24.0,-100.00,NE,39,4.0,10.0,25,0.00,,,0.00,968.000000,,2013-03-22 22:52:00,
2013-03-22 16:22:00,58.0,22.0,-100.00,NNW,330,4.0,10.0,25,0.00,,,0.00,834.000000,,2013-03-22 23:22:00,
2013-03-22 16:32:00,58.0,22.0,-100.00,NNW,330,4.0,10.0,25,0.00,,,0.00,834.000000,,2013-03-22 23:32:00,
2013-03-22 16:42:00,58.0,22.0,-100.00,NNW,330,4.0,10.0,25,0.00,,,0.00,834.000000,,2013-03-22 23:42:00,
2013-03-22 16:52:00,58.0,22.0,-100.00,NNW,330,4.0,10.0,25,0.00,,,0.00,834.000000,,2013-03-22 23:52:00,
2013-03-22 17:23:00,54.0,17.0,-100.00,NNE,31,5.0,11.0,23,0.00,,,0.00,628.000000,,2013-03-23 00:23:00,
2013-03-22 17:32:00,54.0,17.0,-100.00,NNE,31,5.0,11.0,23,0.00,,,0.00,628.000000,,2013-03-23 00:32:00,
2013-03-22 17:42:00,54.0,17.0,-100.00,NNE,31,5.0,11.0,23,0.00,,,0.00,628.000000,,2013-03-23 00:42:00,
2013-03-22 17:52:00,54.0,17.0,-100.00,NNE,31,5.0,11.0,23,0.00,,,0.00,628.000000,,2013-03-23 00:52:00,
2013-03-22 18:22:00,49.0,21.0,-100.00,NNW,341,7.0,21.0,33,0.00,,,0.00,382.000000,,2013-03-23 01:22:00,
2013-03-22 18:32:00,49.0,21.0,-100.00,NNW,341,7.0,21.0,33,0.00,,,0.00,382.000000,,2013-03-23 01:32:00,
2013-03-22 18:42:00,49.0,21.0,-100.00,NNW,341,7.0,21.0,33,0.00,,,0.00,382.000000,,2013-03-23 01:42:00,
2013-03-22 18:52:00,49.0,21.0,-100.00,NNW,341,7.0,21.0,33,0.00,,,0.00,382.000000,,2013-03-23 01:52:00,
2013-03-22 19:22:00,46.0,17.0,-100.00,NNW,342,10.0,16.0,31,0.00,,,0.00,73.000000,,2013-03-23 02:22:00,
2013-03-22 19:32:00,46.0,17.0,-100.00,NNW,342,10.0,16.0,31,0.00,,,0.00,73.000000,,2013-03-23 02:32:00,
2013-03-22 19:42:00,46.0,17.0,-100.00,NNW,342,10.0,16.0,31,0.00,,,0.00,73.000000,,2013-03-23 02:42:00,
2013-03-22 19:52:00,46.0,17.0,-100.00,NNW,342,10.0,16.0,31,0.00,,,0.00,73.000000,,2013-03-23 02:52:00,
2013-03-22 20:22:00,44.0,18.0,-100.00,NNW,334,8.0,24.0,35,0.00,,,0.00,3.000000,,2013-03-23 03:22:00,
2013-03-22 20:33:00,44.0,18.0,-100.00,NNW,334,8.0,24.0,35,0.00,,,0.00,3.000000,,2013-03-23 03:33:00,
2013-03-22 20:43:00,44.0,18.0,-100.00,NNW,334,8.0,24.0,35,0.00,,,0.00,3.000000,,2013-03-23 03:43:00,
2013-03-22 20:53:00,44.0,18.0,-100.00,NNW,334,8.0,24.0,35,0.00,,,0.00,3.000000,,2013-03-23 03:53:00,
2013-03-22 21:32:00,44.0,17.0,-100.00,North,11,7.0,18.0,33,0.00,,,0.00,1.000000,,2013-03-23 04:32:00,
2013-03-22 21:43:00,44.0,17.0,-100.00,North,11,7.0,18.0,33,0.00,,,0.00,1.000000,,2013-03-23 04:43:00,
2013-03-22 21:52:00,44.0,17.0,-100.00,North,11,7.0,18.0,33,0.00,,,0.00,1.000000,,2013-03-23 04:52:00,
2013-03-22 22:32:00,43.0,18.0,-100.00,WNW,284,8.0,19.0,36,0.00,,,0.00,1.000000,,2013-03-23 05:32:00,
2013-03-22 22:42:00,43.0,18.0,-100.00,WNW,284,8.0,19.0,36,0.00,,,0.00,1.000000,,2013-03-23 05:42:00,
2013-03-22 22:52:00,43.0,18.0,-100.00,WNW,284,8.0,19.0,36,0.00,,,0.00,1.000000,,2013-03-23 05:52:00,
2013-03-22 23:22:00,46.0,14.0,-100.00,NNW,328,9.0,17.0,27,0.00,,,0.00,1.000000,,2013-03-23 06:22:00,
2013-03-22 23:32:00,46.0,14.0,-100.00,NNW,328,9.0,17.0,27,0.00,,,0.00,1.000000,,2013-03-23 06:32:00,